| time (UTC) | temp F | wind direction | speed MPH | gust MPH | rain 1hr in | rain 24hr in | rain mn in | humidity % | barometer mb |
| 20260831065504 | 60 | 12 | 0.0 | 0.0 | 0.00 | 0.00 | 0.00 | 58 | 1016.8 |
| 20260831065006 | 60 | 12 | 0.0 | 0.0 | 0.00 | 0.00 | 0.00 | 59 | 1016.8 |
| 20260831064503 | 60 | 13 | 0.0 | 0.0 | 0.00 | 0.00 | 0.00 | 58 | 1016.8 |
| 20260831064005 | 60 | 12 | 0.0 | 0.0 | 0.00 | 0.00 | 0.00 | 59 | 1016.7 |
| 20260831063505 | 60 | 13 | 0.0 | 0.0 | 0.00 | 0.00 | 0.00 | 58 | 1016.8 |
| 20260831062504 | 61 | 11 | 0.0 | 1.0 | 0.00 | 0.00 | 0.00 | 57 | 1016.8 |
| 20260831062004 | 62 | 11 | 0.0 | 1.0 | 0.00 | 0.00 | 0.00 | 57 | 1016.7 |
| 20260831060504 | 62 | 11 | 0.0 | 1.0 | 0.00 | 0.00 | 0.00 | 57 | 1016.7 |
| 20260831060007 | 61 | 65 | 0.0 | 0.0 | 0.00 | 0.00 | 0.00 | 58 | 1016.7 |
| 20260831055504 | 61 | 65 | 0.0 | 1.0 | 0.00 | 0.00 | 0.00 | 59 | 1016.6 |
| 20260831055007 | 60 | 65 | 0.0 | 1.0 | 0.00 | 0.00 | 0.00 | 60 | 1016.6 |
| 20260831054004 | 60 | 65 | 0.0 | 0.0 | 0.00 | 0.00 | 0.00 | 60 | 1016.8 |
| 20260831053504 | 60 | 65 | 0.0 | 0.0 | 0.00 | 0.00 | 0.00 | 60 | 1016.8 |
| 20260831053006 | 60 | 65 | 0.0 | 1.0 | 0.00 | 0.00 | 0.00 | 60 | 1016.8 |
| 20260831052505 | 60 | 65 | 0.0 | 1.0 | 0.00 | 0.00 | 0.00 | 60 | 1016.9 |
| 20260831052005 | 61 | 65 | 0.0 | 2.0 | 0.00 | 0.00 | 0.00 | 59 | 1016.8 |
| 20260831051504 | 61 | 65 | 0.0 | 1.0 | 0.00 | 0.00 | 0.00 | 59 | 1016.8 |
| 20260831051006 | 61 | 84 | 0.0 | 2.0 | 0.00 | 0.00 | 0.00 | 59 | 1016.8 |
| 20260831050503 | 61 | 84 | 0.0 | 2.0 | 0.00 | 0.00 | 0.00 | 59 | 1016.9 |
| 20260831050008 | 61 | 100 | 0.0 | 1.0 | 0.00 | 0.00 | 0.00 | 58 | 1017.0 |
| 20260831045004 | 61 | 100 | 0.0 | 0.0 | 0.00 | 0.00 | 0.00 | 58 | 1016.9 |
| 20260831044504 | 61 | 100 | 0.0 | 0.0 | 0.00 | 0.00 | 0.00 | 58 | 1017.1 |
| 20260831044006 | 61 | 100 | 0.0 | 0.0 | 0.00 | 0.00 | 0.00 | 58 | 1017.0 |
| 20260831043505 | 61 | 100 | 0.0 | 0.0 | 0.00 | 0.00 | 0.00 | 57 | 1017.0 |
| 20260831042005 | 62 | 100 | 0.0 | 1.0 | 0.00 | 0.00 | 0.00 | 56 | 1016.9 |
| 20260831041505 | 62 | 100 | 0.0 | 1.0 | 0.00 | 0.00 | 0.00 | 56 | 1017.0 |
| 20260831040007 | 61 | 100 | 0.0 | 0.0 | 0.00 | 0.00 | 0.00 | 57 | 1016.9 |
| 20260831035506 | 61 | 100 | 0.0 | 0.0 | 0.00 | 0.00 | 0.00 | 57 | 1016.9 |
| 20260831035004 | 61 | 100 | 0.0 | 0.0 | 0.00 | 0.00 | 0.00 | 57 | 1016.9 |
| 20260831034504 | 62 | 100 | 0.0 | 0.0 | 0.00 | 0.00 | 0.00 | 56 | 1017.0 |
| 20260831034004 | 62 | 100 | 0.0 | 0.0 | 0.00 | 0.00 | 0.00 | 56 | 1016.9 |
| 20260831033505 | 62 | 100 | 0.0 | 0.0 | 0.00 | 0.00 | 0.00 | 56 | 1017.0 |
| 20260831033004 | 62 | 100 | 0.0 | 1.0 | 0.00 | 0.00 | 0.00 | 55 | 1016.9 |
| 20260831032503 | 63 | 100 | 0.0 | 1.0 | 0.00 | 0.00 | 0.00 | 55 | 1016.9 |
| 20260831032004 | 63 | 100 | 0.0 | 1.0 | 0.00 | 0.00 | 0.00 | 54 | 1016.9 |
| 20260831031504 | 63 | 100 | 0.0 | 0.0 | 0.00 | 0.00 | 0.00 | 54 | 1016.9 |
| 20260831031004 | 64 | 101 | 0.0 | 0.0 | 0.00 | 0.00 | 0.00 | 53 | 1016.8 |
| 20260831030504 | 64 | 101 | 0.0 | 0.0 | 0.00 | 0.00 | 0.00 | 52 | 1016.7 |
| 20260831030007 | 65 | 101 | 0.0 | 0.0 | 0.00 | 0.00 | 0.00 | 52 | 1016.6 |
| 20260831025505 | 65 | 101 | 0.0 | 0.0 | 0.00 | 0.00 | 0.00 | 51 | 1016.6 |
| 20260831025005 | 65 | 101 | 0.0 | 0.0 | 0.00 | 0.00 | 0.00 | 50 | 1016.7 |
| 20260831024504 | 66 | 101 | 0.0 | 0.0 | 0.00 | 0.00 | 0.00 | 50 | 1016.6 |
| 20260831024005 | 66 | 101 | 0.0 | 0.0 | 0.00 | 0.00 | 0.00 | 49 | 1016.6 |
| 20260831023505 | 67 | 101 | 0.0 | 0.0 | 0.00 | 0.00 | 0.00 | 48 | 1016.6 |
| 20260831023007 | 67 | 100 | 0.0 | 0.0 | 0.00 | 0.00 | 0.00 | 47 | 1016.6 |
| 20260831022505 | 68 | 101 | 0.0 | 0.0 | 0.00 | 0.00 | 0.00 | 47 | 1016.6 |
| 20260831022004 | 68 | 100 | 0.0 | 0.0 | 0.00 | 0.00 | 0.00 | 46 | 1016.6 |
| 20260831021007 | 69 | 100 | 0.0 | 0.0 | 0.00 | 0.00 | 0.00 | 47 | 1016.6 |
| 20260831020504 | 69 | 100 | 0.0 | 1.0 | 0.00 | 0.00 | 0.00 | 46 | 1016.6 |
| 20260831020010 | 69 | 101 | 0.0 | 1.0 | 0.00 | 0.00 | 0.00 | 45 | 1016.6 |
| 20260831015505 | 70 | 100 | 0.0 | 0.0 | 0.00 | 0.00 | 0.00 | 45 | 1016.6 |
| 20260831015004 | 70 | 100 | 0.0 | 0.0 | 0.00 | 0.00 | 0.00 | 45 | 1016.8 |
| 20260831014503 | 71 | 101 | 0.0 | 1.0 | 0.00 | 0.00 | 0.00 | 43 | 1016.8 |
| 20260831014005 | 71 | 100 | 0.0 | 1.0 | 0.00 | 0.00 | 0.00 | 43 | 1016.7 |
| 20260831013504 | 71 | 356 | 0.0 | 1.0 | 0.00 | 0.00 | 0.00 | 43 | 1016.7 |
| 20260831013005 | 72 | 92 | 0.0 | 1.0 | 0.00 | 0.00 | 0.00 | 42 | 1016.8 |
| 20260831012504 | 72 | 92 | 0.0 | 1.0 | 0.00 | 0.00 | 0.00 | 42 | 1016.8 |
| 20260831012005 | 73 | 92 | 0.0 | 1.0 | 0.00 | 0.00 | 0.00 | 41 | 1016.9 |
| 20260831011505 | 73 | 92 | 0.0 | 3.0 | 0.00 | 0.00 | 0.00 | 40 | 1016.8 |
| 20260831011007 | 73 | 74 | 0.0 | 3.0 | 0.00 | 0.00 | 0.00 | 40 | 1016.8 |
| 20260831010505 | 73 | 299 | 0.0 | 5.0 | 0.00 | 0.00 | 0.00 | 40 | 1016.9 |
| 20260831010007 | 74 | 298 | 0.0 | 5.0 | 0.00 | 0.00 | 0.00 | 39 | 1016.9 |
| 20260831005505 | 74 | 136 | 0.0 | 2.0 | 0.00 | 0.00 | 0.00 | 38 | 1016.9 |
| 20260831005006 | 74 | 212 | 0.0 | 2.0 | 0.00 | 0.00 | 0.00 | 38 | 1016.9 |
| 20260831004505 | 75 | 203 | 0.0 | 2.0 | 0.00 | 0.00 | 0.00 | 39 | 1016.9 |
| 20260831004005 | 75 | 127 | 0.0 | 2.0 | 0.00 | 0.00 | 0.00 | 37 | 1016.9 |
| 20260831003505 | 75 | 141 | 0.0 | 1.0 | 0.00 | 0.00 | 0.00 | 37 | 1016.9 |
| 20260831003006 | 76 | 141 | 0.0 | 3.0 | 0.00 | 0.00 | 0.00 | 37 | 1016.9 |
| 20260831002504 | 76 | 228 | 0.0 | 3.0 | 0.00 | 0.00 | 0.00 | 37 | 1016.9 |
| 20260831002005 | 76 | 135 | 0.0 | 2.0 | 0.00 | 0.00 | 0.00 | 36 | 1017.0 |
| 20260831001505 | 77 | 86 | 0.0 | 2.0 | 0.00 | 0.00 | 0.00 | 36 | 1016.9 |
| 20260831000503 | 77 | 240 | 1.0 | 3.0 | 0.00 | 0.00 | 0.00 | 35 | 1016.9 |
| 20260831000006 | 78 | 110 | 1.0 | 4.0 | 0.00 | 0.00 | 0.00 | 35 | 1016.9 |
| 20260830235504 | 78 | 112 | 1.0 | 4.0 | 0.00 | 0.00 | 0.00 | 33 | 1016.9 |
| 20260830235006 | 79 | 253 | 1.0 | 4.0 | 0.00 | 0.00 | 0.00 | 33 | 1016.9 |
| 20260830234504 | 79 | 155 | 1.0 | 4.0 | 0.00 | 0.00 | 0.00 | 33 | 1017.0 |
| 20260830234004 | 79 | 228 | 1.0 | 7.0 | 0.00 | 0.00 | 0.00 | 33 | 1017.0 |
| 20260830233501 | 80 | 300 | 1.0 | 7.0 | 0.00 | 0.00 | 0.00 | 32 | 1017.0 |
| 20260830233004 | 80 | 198 | 2.0 | 5.0 | 0.00 | 0.00 | 0.00 | 33 | 1017.1 |
| 20260830232501 | 80 | 233 | 2.0 | 6.0 | 0.00 | 0.00 | 0.00 | 32 | 1017.1 |
| 20260830232004 | 80 | 167 | 2.0 | 6.0 | 0.00 | 0.00 | 0.00 | 31 | 1017.1 |
| 20260830231504 | 81 | 186 | 1.0 | 5.0 | 0.00 | 0.00 | 0.00 | 32 | 1017.1 |
| 20260830231003 | 81 | 114 | 2.0 | 6.0 | 0.00 | 0.00 | 0.00 | 31 | 1017.1 |
| 20260830230503 | 81 | 274 | 1.0 | 6.0 | 0.00 | 0.00 | 0.00 | 32 | 1017.1 |
| 20260830230007 | 81 | 132 | 2.0 | 6.0 | 0.00 | 0.00 | 0.00 | 31 | 1017.2 |
| 20260830225503 | 80 | 160 | 2.0 | 5.0 | 0.00 | 0.00 | 0.00 | 33 | 1017.2 |
| 20260830225004 | 80 | 130 | 2.0 | 6.0 | 0.00 | 0.00 | 0.00 | 32 | 1017.3 |
| 20260830224503 | 80 | 236 | 2.0 | 6.0 | 0.00 | 0.00 | 0.00 | 33 | 1017.2 |
| 20260830224004 | 79 | 258 | 2.0 | 7.0 | 0.00 | 0.00 | 0.00 | 33 | 1017.3 |
| 20260830223503 | 80 | 127 | 1.0 | 7.0 | 0.00 | 0.00 | 0.00 | 33 | 1017.3 |
| 20260830223005 | 79 | 94 | 3.0 | 6.0 | 0.00 | 0.00 | 0.00 | 33 | 1017.4 |
| 20260830222005 | 80 | 150 | 3.0 | 10.0 | 0.00 | 0.00 | 0.00 | 33 | 1017.4 |
| 20260830221507 | 80 | 231 | 3.0 | 10.0 | 0.00 | 0.00 | 0.00 | 33 | 1017.2 |
| 20260830221006 | 80 | 130 | 3.0 | 8.0 | 0.00 | 0.00 | 0.00 | 33 | 1017.5 |
| 20260830220505 | 80 | 117 | 2.0 | 7.0 | 0.00 | 0.00 | 0.00 | 33 | 1017.5 |
| 20260830220009 | 82 | 211 | 2.0 | 7.0 | 0.00 | 0.00 | 0.00 | 31 | 1017.5 |
| 20260830215504 | 82 | 56 | 2.0 | 7.0 | 0.00 | 0.00 | 0.00 | 32 | 1017.7 |
| 20260830215006 | 82 | 153 | 2.0 | 6.0 | 0.00 | 0.00 | 0.00 | 32 | 1017.8 |
| 20260830214500 | 82 | 226 | 1.0 | 5.0 | 0.00 | 0.00 | 0.00 | 32 | 1018.0 |
| 20260830214006 | 83 | 288 | 1.0 | 3.0 | 0.00 | 0.00 | 0.00 | 31 | 1017.8 |
| 20260830213519 | 81 | 271 | 1.0 | 6.0 | 0.00 | 0.00 | 0.00 | 33 | 1018.0 |
| 20260830213005 | 81 | 147 | 2.0 | 7.0 | 0.00 | 0.00 | 0.00 | 32 | 1018.0 |
| 20260830212503 | 81 | 335 | 2.0 | 7.0 | 0.00 | 0.00 | 0.00 | 32 | 1018.0 |
| 20260830212003 | 81 | 265 | 2.0 | 6.0 | 0.00 | 0.00 | 0.00 | 32 | 1018.0 |
| 20260830211507 | 81 | 144 | 3.0 | 6.0 | 0.00 | 0.00 | 0.00 | 32 | 1018.0 |
| 20260830210504 | 82 | 110 | 2.0 | 8.0 | 0.00 | 0.00 | 0.00 | 31 | 1017.9 |
| 20260830210010 | 83 | 144 | 1.0 | 6.0 | 0.00 | 0.00 | 0.00 | 31 | 1017.9 |
| 20260830205503 | 84 | 193 | 1.0 | 7.0 | 0.00 | 0.00 | 0.00 | 31 | 1017.8 |
| 20260830204507 | 83 | 72 | 2.0 | 8.0 | 0.00 | 0.00 | 0.00 | 31 | 1017.9 |
| 20260830204005 | 84 | 166 | 1.0 | 8.0 | 0.00 | 0.00 | 0.00 | 30 | 1017.8 |
| 20260830203504 | 84 | 280 | 1.0 | 4.0 | 0.00 | 0.00 | 0.00 | 31 | 1017.7 |
| 20260830203007 | 84 | 67 | 1.0 | 4.0 | 0.00 | 0.00 | 0.00 | 31 | 1017.8 |
| 20260830202504 | 82 | 264 | 2.0 | 10.0 | 0.00 | 0.00 | 0.00 | 31 | 1018.0 |
| 20260830202004 | 82 | 153 | 2.0 | 10.0 | 0.00 | 0.00 | 0.00 | 31 | 1018.1 |
| 20260830201505 | 81 | 292 | 3.0 | 7.0 | 0.00 | 0.00 | 0.00 | 32 | 1018.0 |
| 20260830201005 | 81 | 174 | 2.0 | 7.0 | 0.00 | 0.00 | 0.00 | 32 | 1018.0 |
| 20260830200503 | 81 | 119 | 1.0 | 8.0 | 0.00 | 0.00 | 0.00 | 32 | 1018.0 |
| 20260830200006 | 82 | 102 | 1.0 | 4.0 | 0.00 | 0.00 | 0.00 | 31 | 1018.0 |
| 20260830195503 | 83 | 189 | 1.0 | 4.0 | 0.00 | 0.00 | 0.00 | 32 | 1018.0 |
| 20260830195006 | 83 | 141 | 1.0 | 5.0 | 0.00 | 0.00 | 0.00 | 30 | 1018.0 |
| 20260830194504 | 82 | 286 | 2.0 | 6.0 | 0.00 | 0.00 | 0.00 | 31 | 1018.0 |
| 20260830194005 | 81 | 162 | 2.0 | 9.0 | 0.00 | 0.00 | 0.00 | 32 | 1017.9 |
| 20260830193503 | 82 | 226 | 2.0 | 9.0 | 0.00 | 0.00 | 0.00 | 31 | 1018.0 |
| 20260830193004 | 82 | 141 | 1.0 | 4.0 | 0.00 | 0.00 | 0.00 | 30 | 1018.0 |
| 20260830192504 | 81 | 61 | 2.0 | 7.0 | 0.00 | 0.00 | 0.00 | 31 | 1018.0 |
| 20260830192003 | 82 | 117 | 1.0 | 7.0 | 0.00 | 0.00 | 0.00 | 30 | 1018.2 |
| 20260830191505 | 81 | 122 | 1.0 | 4.0 | 0.00 | 0.00 | 0.00 | 33 | 1018.2 |
| 20260830191004 | 80 | 167 | 1.0 | 4.0 | 0.00 | 0.00 | 0.00 | 32 | 1018.1 |
| 20260830190503 | 80 | 293 | 2.0 | 7.0 | 0.00 | 0.00 | 0.00 | 31 | 1018.1 |
| 20260830190006 | 80 | 119 | 2.0 | 7.0 | 0.00 | 0.00 | 0.00 | 33 | 1018.2 |
| 20260830185504 | 80 | 204 | 2.0 | 9.0 | 0.00 | 0.00 | 0.00 | 32 | 1018.3 |
| 20260830184500 | 80 | 274 | 2.0 | 3.0 | 0.00 | 0.00 | 0.00 | 34 | 1018.3 |
| 20260830184004 | 78 | 222 | 2.0 | 8.0 | 0.00 | 0.00 | 0.00 | 35 | 1018.3 |
| 20260830183459 | 79 | 134 | 3.0 | 8.0 | 0.00 | 0.00 | 0.00 | 34 | 1018.4 |
| 20260830183003 | 79 | 167 | 2.0 | 8.0 | 0.00 | 0.00 | 0.00 | 34 | 1018.4 |
| 20260830182503 | 80 | 238 | 1.0 | 4.0 | 0.00 | 0.00 | 0.00 | 34 | 1018.4 |
| 20260830181004 | 79 | 155 | 2.0 | 5.0 | 0.00 | 0.00 | 0.00 | 35 | 1018.3 |
| 20260830180500 | 79 | 144 | 1.0 | 5.0 | 0.00 | 0.00 | 0.00 | 34 | 1018.2 |
| 20260830180004 | 79 | 155 | 1.0 | 5.0 | 0.00 | 0.00 | 0.00 | 36 | 1018.2 |
| 20260830175504 | 78 | 151 | 2.0 | 8.0 | 0.00 | 0.00 | 0.00 | 36 | 1018.2 |
| 20260830174504 | 77 | 77 | 2.0 | 5.0 | 0.00 | 0.00 | 0.00 | 37 | 1018.2 |
| 20260830174001 | 76 | 217 | 2.0 | 8.0 | 0.00 | 0.00 | 0.00 | 38 | 1018.1 |
| 20260830173503 | 76 | 140 | 2.0 | 8.0 | 0.00 | 0.00 | 0.00 | 37 | 1018.1 |
| 20260830172504 | 76 | 238 | 2.0 | 6.0 | 0.00 | 0.00 | 0.00 | 38 | 1018.1 |
| 20260830172005 | 75 | 124 | 2.0 | 6.0 | 0.00 | 0.00 | 0.00 | 40 | 1018.1 |
| 20260830171504 | 76 | 158 | 2.0 | 7.0 | 0.00 | 0.00 | 0.00 | 38 | 1018.1 |
| 20260830171004 | 76 | 241 | 1.0 | 4.0 | 0.00 | 0.00 | 0.00 | 38 | 1018.0 |
| 20260830170503 | 75 | 153 | 2.0 | 6.0 | 0.00 | 0.00 | 0.00 | 39 | 1018.0 |
| 20260830170007 | 75 | 144 | 2.0 | 6.0 | 0.00 | 0.00 | 0.00 | 38 | 1018.0 |
| 20260830165504 | 76 | 132 | 2.0 | 7.0 | 0.00 | 0.00 | 0.00 | 38 | 1017.9 |
| 20260830164004 | 75 | 159 | 1.0 | 5.0 | 0.00 | 0.00 | 0.00 | 39 | 1017.9 |
| 20260830163008 | 75 | 235 | 1.0 | 3.0 | 0.00 | 0.00 | 0.00 | 41 | 1017.8 |
| 20260830162506 | 74 | 106 | 1.0 | 3.0 | 0.00 | 0.00 | 0.00 | 41 | 1017.8 |
| 20260830162007 | 74 | 123 | 0.0 | 2.0 | 0.00 | 0.00 | 0.00 | 42 | 1017.8 |
| 20260830161506 | 73 | 105 | 1.0 | 3.0 | 0.00 | 0.00 | 0.00 | 44 | 1017.9 |
| 20260830161006 | 72 | 148 | 0.0 | 3.0 | 0.00 | 0.00 | 0.00 | 43 | 1017.8 |
| 20260830160506 | 71 | 340 | 0.0 | 1.0 | 0.00 | 0.00 | 0.00 | 45 | 1017.8 |
| 20260830160009 | 70 | 282 | 0.0 | 2.0 | 0.00 | 0.00 | 0.00 | 45 | 1017.9 |
| 20260830155504 | 68 | 129 | 0.0 | 2.0 | 0.00 | 0.00 | 0.00 | 47 | 1018.0 |
| 20260830155004 | 68 | 220 | 0.0 | 1.0 | 0.00 | 0.00 | 0.00 | 47 | 1017.9 |
| 20260830154508 | 67 | 56 | 0.0 | 1.0 | 0.00 | 0.00 | 0.00 | 50 | 1018.0 |
| 20260830154007 | 66 | 53 | 0.0 | 1.0 | 0.00 | 0.00 | 0.00 | 51 | 1017.9 |
| 20260830153505 | 66 | 53 | 0.0 | 1.0 | 0.00 | 0.00 | 0.00 | 51 | 1017.9 |
| 20260830153004 | 65 | 51 | 0.0 | 0.0 | 0.00 | 0.00 | 0.00 | 50 | 1018.0 |
| 20260830152506 | 65 | 51 | 0.0 | 0.0 | 0.00 | 0.00 | 0.00 | 50 | 1017.9 |
| 20260830152006 | 64 | 51 | 0.0 | 1.0 | 0.00 | 0.00 | 0.00 | 50 | 1017.8 |
| 20260830151504 | 64 | 51 | 0.0 | 1.0 | 0.00 | 0.00 | 0.00 | 49 | 1017.9 |
| 20260830150506 | 63 | 51 | 0.0 | 0.0 | 0.00 | 0.00 | 0.00 | 52 | 1017.9 |
| 20260830150006 | 63 | 51 | 0.0 | 0.0 | 0.00 | 0.00 | 0.00 | 52 | 1017.9 |
| 20260830145505 | 63 | 51 | 0.0 | 0.0 | 0.00 | 0.00 | 0.00 | 51 | 1017.9 |
| 20260830145008 | 62 | 56 | 0.0 | 0.0 | 0.00 | 0.00 | 0.00 | 51 | 1017.9 |
| 20260830144503 | 62 | 56 | 0.0 | 1.0 | 0.00 | 0.00 | 0.00 | 50 | 1017.9 |
| 20260830144006 | 62 | 55 | 0.0 | 1.0 | 0.00 | 0.00 | 0.00 | 50 | 1017.9 |
| 20260830143504 | 62 | 285 | 0.0 | 1.0 | 0.00 | 0.00 | 0.00 | 50 | 1017.9 |
| 20260830143010 | 62 | 285 | 0.0 | 1.0 | 0.00 | 0.00 | 0.00 | 49 | 1017.8 |
| 20260830142504 | 61 | 285 | 0.0 | 1.0 | 0.00 | 0.00 | 0.00 | 50 | 1017.7 |
| 20260830142005 | 61 | 285 | 0.0 | 1.0 | 0.00 | 0.00 | 0.00 | 51 | 1017.8 |
| 20260830141502 | 60 | 285 | 0.0 | 1.0 | 0.00 | 0.00 | 0.00 | 49 | 1017.7 |
| 20260830141005 | 60 | 285 | 0.0 | 1.0 | 0.00 | 0.00 | 0.00 | 49 | 1017.7 |
| 20260830140503 | 60 | 285 | 0.0 | 1.0 | 0.00 | 0.00 | 0.00 | 49 | 1017.7 |
| 20260830140008 | 60 | 285 | 0.0 | 1.0 | 0.00 | 0.00 | 0.00 | 48 | 1017.6 |
| 20260830135005 | 60 | 285 | 0.0 | 1.0 | 0.00 | 0.00 | 0.00 | 47 | 1017.5 |
| 20260830134505 | 60 | 285 | 0.0 | 1.0 | 0.00 | 0.00 | 0.00 | 47 | 1017.4 |
| 20260830134005 | 60 | 286 | 0.0 | 0.0 | 0.00 | 0.00 | 0.00 | 47 | 1017.4 |
| 20260830133502 | 60 | 284 | 0.0 | 1.0 | 0.00 | 0.00 | 0.00 | 46 | 1017.4 |
| 20260830133005 | 60 | 284 | 0.0 | 1.0 | 0.00 | 0.00 | 0.00 | 46 | 1017.3 |
| 20260830132504 | 60 | 300 | 0.0 | 1.0 | 0.00 | 0.00 | 0.00 | 45 | 1017.3 |
| 20260830132003 | 60 | 280 | 0.0 | 1.0 | 0.00 | 0.00 | 0.00 | 45 | 1017.2 |
| 20260830131504 | 60 | 281 | 0.0 | 1.0 | 0.00 | 0.00 | 0.00 | 45 | 1017.2 |
| 20260830131006 | 60 | 281 | 0.0 | 1.0 | 0.00 | 0.00 | 0.00 | 45 | 1017.2 |
| 20260830130505 | 60 | 281 | 0.0 | 1.0 | 0.00 | 0.00 | 0.00 | 44 | 1017.3 |
| 20260830130008 | 61 | 281 | 0.0 | 1.0 | 0.00 | 0.00 | 0.00 | 43 | 1017.3 |
| 20260830125006 | 61 | 280 | 0.0 | 1.0 | 0.00 | 0.00 | 0.00 | 43 | 1017.3 |
| 20260830124005 | 61 | 281 | 0.0 | 1.0 | 0.00 | 0.00 | 0.00 | 42 | 1017.2 |
| 20260830123505 | 61 | 271 | 0.0 | 1.0 | 0.00 | 0.00 | 0.00 | 42 | 1017.2 |
| 20260830123003 | 61 | 271 | 0.0 | 1.0 | 0.00 | 0.00 | 0.00 | 42 | 1017.2 |
| 20260830122505 | 61 | 271 | 0.0 | 1.0 | 0.00 | 0.00 | 0.00 | 42 | 1017.2 |
| 20260830122003 | 61 | 271 | 0.0 | 1.0 | 0.00 | 0.00 | 0.00 | 42 | 1017.1 |
| 20260830121504 | 61 | 271 | 0.0 | 1.0 | 0.00 | 0.00 | 0.00 | 41 | 1017.1 |
| 20260830121007 | 61 | 271 | 0.0 | 1.0 | 0.00 | 0.00 | 0.00 | 41 | 1017.1 |
| 20260830120504 | 61 | 271 | 0.0 | 2.0 | 0.00 | 0.00 | 0.00 | 41 | 1017.1 |
| 20260830120006 | 61 | 271 | 0.0 | 2.0 | 0.00 | 0.00 | 0.00 | 41 | 1017.1 |
| 20260830115504 | 61 | 283 | 0.0 | 1.0 | 0.00 | 0.00 | 0.00 | 42 | 1017.1 |
| 20260830115005 | 61 | 278 | 0.0 | 1.0 | 0.00 | 0.00 | 0.00 | 41 | 1017.1 |
| 20260830114504 | 61 | 277 | 0.0 | 1.0 | 0.00 | 0.00 | 0.00 | 41 | 1017.1 |
| 20260830113504 | 61 | 278 | 0.0 | 1.0 | 0.00 | 0.00 | 0.00 | 40 | 1017.0 |
| 20260830113007 | 61 | 278 | 0.0 | 1.0 | 0.00 | 0.00 | 0.00 | 39 | 1017.0 |
| 20260830112503 | 61 | 278 | 0.0 | 1.0 | 0.00 | 0.00 | 0.00 | 39 | 1017.1 |
| 20260830112005 | 61 | 278 | 0.0 | 1.0 | 0.00 | 0.00 | 0.00 | 40 | 1017.1 |
| 20260830111504 | 61 | 277 | 0.0 | 1.0 | 0.00 | 0.00 | 0.00 | 41 | 1017.0 |
| 20260830110504 | 61 | 278 | 0.0 | 1.0 | 0.00 | 0.00 | 0.00 | 42 | 1017.0 |
| 20260830110004 | 61 | 278 | 0.0 | 2.0 | 0.00 | 0.00 | 0.00 | 44 | 1017.0 |
| 20260830105505 | 61 | 276 | 1.0 | 2.0 | 0.00 | 0.00 | 0.00 | 43 | 1017.1 |
| 20260830105003 | 61 | 278 | 1.0 | 2.0 | 0.00 | 0.00 | 0.00 | 44 | 1017.1 |
| 20260830104004 | 60 | 277 | 0.0 | 2.0 | 0.00 | 0.00 | 0.00 | 47 | 1017.1 |
| 20260830103504 | 60 | 282 | 0.0 | 1.0 | 0.00 | 0.00 | 0.00 | 47 | 1017.1 |
| 20260830103005 | 60 | 274 | 0.0 | 1.0 | 0.00 | 0.00 | 0.00 | 48 | 1017.1 |
| 20260830102506 | 60 | 274 | 0.0 | 2.0 | 0.00 | 0.00 | 0.00 | 49 | 1017.2 |
| 20260830102003 | 60 | 297 | 0.0 | 2.0 | 0.00 | 0.00 | 0.00 | 50 | 1017.2 |
| 20260830101504 | 60 | 269 | 0.0 | 1.0 | 0.00 | 0.00 | 0.00 | 50 | 1017.2 |
| 20260830101003 | 60 | 269 | 0.0 | 1.0 | 0.00 | 0.00 | 0.00 | 50 | 1017.2 |
| 20260830100504 | 60 | 270 | 0.0 | 2.0 | 0.00 | 0.00 | 0.00 | 51 | 1017.3 |
| 20260830100007 | 60 | 276 | 0.0 | 2.0 | 0.00 | 0.00 | 0.00 | 51 | 1017.3 |
| 20260830095005 | 61 | 285 | 0.0 | 1.0 | 0.00 | 0.00 | 0.00 | 51 | 1017.3 |
| 20260830094500 | 60 | 280 | 0.0 | 1.0 | 0.00 | 0.00 | 0.00 | 53 | 1017.4 |
| 20260830094004 | 60 | 5 | 0.0 | 1.0 | 0.00 | 0.00 | 0.00 | 53 | 1017.3 |
| 20260830093003 | 60 | 274 | 0.0 | 1.0 | 0.00 | 0.00 | 0.00 | 54 | 1017.3 |
| 20260830092502 | 60 | 275 | 0.0 | 1.0 | 0.00 | 0.00 | 0.00 | 54 | 1017.3 |
| 20260830092004 | 60 | 255 | 0.0 | 1.0 | 0.00 | 0.00 | 0.00 | 54 | 1017.4 |
| 20260830091505 | 60 | 255 | 0.0 | 1.0 | 0.00 | 0.00 | 0.00 | 55 | 1017.4 |
| 20260830091004 | 60 | 255 | 0.0 | 1.0 | 0.00 | 0.00 | 0.00 | 54 | 1017.5 |
| 20260830090507 | 60 | 255 | 0.0 | 1.0 | 0.00 | 0.00 | 0.00 | 54 | 1017.5 |
| 20260830090007 | 60 | 274 | 0.0 | 1.0 | 0.00 | 0.00 | 0.00 | 54 | 1017.6 |
| 20260830085504 | 61 | 274 | 0.0 | 1.0 | 0.00 | 0.00 | 0.00 | 54 | 1017.6 |
| 20260830085003 | 61 | 281 | 0.0 | 2.0 | 0.00 | 0.00 | 0.00 | 54 | 1017.6 |
| 20260830084504 | 61 | 281 | 0.0 | 2.0 | 0.00 | 0.00 | 0.00 | 54 | 1017.7 |
| 20260830084006 | 61 | 276 | 0.0 | 1.0 | 0.00 | 0.00 | 0.00 | 54 | 1017.7 |
| 20260830083503 | 61 | 276 | 0.0 | 1.0 | 0.00 | 0.00 | 0.00 | 54 | 1017.8 |
| 20260830082504 | 60 | 276 | 0.0 | 2.0 | 0.00 | 0.00 | 0.00 | 55 | 1017.8 |
| 20260830082003 | 60 | 276 | 0.0 | 1.0 | 0.00 | 0.00 | 0.00 | 55 | 1017.8 |
| 20260830081504 | 60 | 281 | 0.0 | 1.0 | 0.00 | 0.00 | 0.00 | 54 | 1017.8 |
| 20260830075504 | 60 | 98 | 0.0 | 1.0 | 0.00 | 0.00 | 0.00 | 54 | 1017.8 |
| 20260830074004 | 61 | 278 | 0.0 | 1.0 | 0.00 | 0.00 | 0.00 | 52 | 1017.8 |
| 20260830073504 | 61 | 276 | 0.0 | 1.0 | 0.00 | 0.00 | 0.00 | 52 | 1017.8 |
| 20260830072503 | 61 | 276 | 0.0 | 1.0 | 0.00 | 0.00 | 0.00 | 51 | 1017.9 |
| 20260830071504 | 61 | 276 | 0.0 | 1.0 | 0.00 | 0.00 | 0.00 | 51 | 1017.8 |
| 20260830071007 | 61 | 276 | 0.0 | 1.0 | 0.00 | 0.00 | 0.00 | 52 | 1017.8 |
| 20260830070504 | 61 | 276 | 0.0 | 1.0 | 0.00 | 0.00 | 0.00 | 52 | 1017.9 |